TimeMST,TemperatureF,Dew PointF,Humidity,Sea Level PressureIn,VisibilityMPH,Wind Direction,Wind SpeedMPH,Gust SpeedMPH,PrecipitationIn,Events,Conditions,WindDirDegrees,DateUTC
12:15 AM,21.0,17.6,87,30.20,10.0,West,8.1,-,N/A,,Clear,280,2013-01-18 07:15:00
12:35 AM,21.2,18.1,88,30.19,10.0,West,6.9,-,N/A,,Clear,270,2013-01-18 07:35:00
12:55 AM,19.4,16.7,89,30.18,10.0,West,5.8,-,N/A,,Clear,270,2013-01-18 07:55:00
1:15 AM,20.3,17.6,89,30.18,10.0,West,10.4,-,N/A,,Clear,260,2013-01-18 08:15:00
1:35 AM,20.1,17.4,89,30.19,10.0,West,10.4,-,N/A,,Clear,280,2013-01-18 08:35:00
1:55 AM,21.0,17.2,85,30.17,10.0,West,8.1,-,N/A,,Clear,280,2013-01-18 08:55:00
2:15 AM,20.5,16.7,85,30.17,10.0,West,11.5,-,N/A,,Clear,270,2013-01-18 09:15:00
2:35 AM,22.1,17.8,83,30.17,10.0,West,9.2,-,N/A,,Clear,280,2013-01-18 09:35:00
2:55 AM,21.7,17.6,84,30.17,10.0,West,10.4,-,N/A,,Clear,270,2013-01-18 09:55:00
3:15 AM,20.8,16.5,83,30.16,10.0,West,10.4,-,N/A,,Clear,270,2013-01-18 10:15:00
3:35 AM,22.1,17.6,83,30.15,10.0,West,13.8,-,N/A,,Clear,280,2013-01-18 10:35:00
3:55 AM,21.0,16.3,82,30.15,10.0,West,11.5,-,N/A,,Clear,280,2013-01-18 10:55:00
4:15 AM,20.3,15.8,83,30.14,10.0,West,10.4,-,N/A,,Clear,280,2013-01-18 11:15:00
4:35 AM,21.7,16.0,78,30.13,10.0,West,10.4,-,N/A,,Clear,280,2013-01-18 11:35:00
4:55 AM,20.7,15.6,81,30.13,10.0,West,11.5,-,N/A,,Clear,280,2013-01-18 11:55:00
5:15 AM,21.7,16.5,80,30.13,10.0,West,11.5,-,N/A,,Clear,280,2013-01-18 12:15:00
5:35 AM,21.0,15.6,80,30.13,10.0,West,9.2,-,N/A,,Clear,270,2013-01-18 12:35:00
5:55 AM,19.4,14.4,81,30.12,10.0,West,9.2,-,N/A,,Clear,280,2013-01-18 12:55:00
6:15 AM,19.0,14.5,83,30.12,10.0,West,10.4,-,N/A,,Clear,280,2013-01-18 13:15:00
6:35 AM,20.1,14.7,80,30.13,10.0,West,11.5,-,N/A,,Clear,280,2013-01-18 13:35:00
6:55 AM,18.5,13.5,81,30.13,10.0,West,11.5,-,N/A,,Clear,280,2013-01-18 13:55:00
7:15 AM,17.6,12.9,82,30.13,10.0,West,9.2,-,N/A,,Clear,270,2013-01-18 14:15:00
7:35 AM,18.7,13.5,80,30.13,10.0,West,9.2,-,N/A,,Clear,270,2013-01-18 14:35:00
7:55 AM,17.6,12.7,81,30.13,10.0,West,8.1,-,N/A,,Clear,270,2013-01-18 14:55:00
8:15 AM,21.2,16.3,82,30.13,10.0,West,8.1,-,N/A,,Clear,280,2013-01-18 15:15:00
8:35 AM,28.4,19.4,69,30.14,10.0,West,10.4,-,N/A,,Clear,280,2013-01-18 15:35:00
8:55 AM,31.3,19.9,63,30.15,10.0,West,12.7,-,N/A,,Clear,280,2013-01-18 15:55:00
9:15 AM,33.3,19.9,58,30.15,10.0,West,15.0,-,N/A,,Clear,270,2013-01-18 16:15:00
9:35 AM,36.1,20.3,53,30.15,10.0,West,16.1,-,N/A,,Clear,270,2013-01-18 16:35:00
9:55 AM,38.7,16.0,40,30.15,10.0,West,13.8,-,N/A,,Clear,270,2013-01-18 16:55:00
10:15 AM,40.1,15.4,37,30.15,10.0,West,16.1,-,N/A,,Clear,260,2013-01-18 17:15:00
10:35 AM,41.4,16.2,36,30.14,10.0,West,12.7,-,N/A,,Clear,260,2013-01-18 17:35:00
10:55 AM,43.3,16.3,34,30.13,10.0,WSW,15.0,-,N/A,,Clear,250,2013-01-18 17:55:00
11:15 AM,46.2,17.2,31,30.12,10.0,WSW,9.2,-,N/A,,Clear,250,2013-01-18 18:15:00
11:35 AM,49.5,16.5,27,30.11,10.0,WSW,9.2,-,N/A,,Clear,250,2013-01-18 18:35:00
11:55 AM,50.7,14.5,24,30.09,10.0,West,10.4,-,N/A,,Clear,260,2013-01-18 18:55:00
12:15 PM,54.5,13.1,19,30.08,10.0,West,11.5,17.3,N/A,,Clear,260,2013-01-18 19:15:00
12:35 PM,56.5,9.7,16,30.07,10.0,West,15.0,23.0,N/A,,Clear,260,2013-01-18 19:35:00
12:55 PM,58.1,8.4,14,30.06,10.0,West,17.3,20.7,N/A,,Clear,270,2013-01-18 19:55:00
1:15 PM,58.6,7.9,13,30.06,10.0,West,13.8,-,N/A,,Clear,260,2013-01-18 20:15:00
1:35 PM,59.7,7.9,13,30.05,10.0,West,16.1,21.9,N/A,,Clear,270,2013-01-18 20:35:00
1:55 PM,60.8,3.9,10,30.05,10.0,West,19.6,26.5,N/A,,Clear,270,2013-01-18 20:55:00
2:15 PM,61.0,4.8,11,30.04,10.0,WSW,12.7,21.9,N/A,,Clear,250,2013-01-18 21:15:00
2:35 PM,59.9,5.7,12,30.04,10.0,WSW,15.0,-,N/A,,Clear,250,2013-01-18 21:35:00
2:55 PM,60.1,5.0,11,30.04,10.0,WSW,15.0,18.4,N/A,,Clear,240,2013-01-18 21:55:00
3:15 PM,59.9,4.8,11,30.04,10.0,WSW,12.7,-,N/A,,Clear,250,2013-01-18 22:15:00
3:35 PM,59.4,4.3,11,30.04,10.0,WSW,12.7,-,N/A,,Clear,250,2013-01-18 22:35:00
3:55 PM,58.5,4.3,11,30.04,10.0,WSW,10.4,-,N/A,,Clear,250,2013-01-18 22:55:00
4:15 PM,56.3,4.8,13,30.04,10.0,WSW,6.9,-,N/A,,Clear,240,2013-01-18 23:15:00
4:35 PM,51.3,4.6,15,30.05,10.0,West,3.5,-,N/A,,Clear,270,2013-01-18 23:35:00
4:55 PM,48.7,3.7,16,30.05,10.0,West,4.6,-,N/A,,Clear,270,2013-01-18 23:55:00
5:15 PM,45.5,4.1,18,30.05,10.0,WNW,4.6,-,N/A,,Clear,290,2013-01-19 00:15:00
5:35 PM,44.8,5.4,20,30.05,10.0,WNW,6.9,-,N/A,,Clear,290,2013-01-19 00:35:00
5:55 PM,41.4,6.3,24,30.04,10.0,WNW,8.1,-,N/A,,Clear,290,2013-01-19 00:55:00
6:15 PM,40.1,8.1,27,30.04,10.0,WNW,9.2,-,N/A,,Clear,290,2013-01-19 01:15:00
6:35 PM,39.2,8.4,28,30.04,10.0,WNW,10.4,-,N/A,,Clear,300,2013-01-19 01:35:00
6:55 PM,39.4,8.4,28,30.04,10.0,WNW,11.5,-,N/A,,Clear,290,2013-01-19 01:55:00
7:15 PM,39.7,8.1,27,30.04,10.0,WNW,8.1,-,N/A,,Clear,290,2013-01-19 02:15:00
7:35 PM,39.6,6.8,26,30.04,10.0,West,10.4,-,N/A,,Clear,270,2013-01-19 02:35:00
7:55 PM,32.4,6.8,34,30.04,10.0,WNW,6.9,-,N/A,,Clear,290,2013-01-19 02:55:00
8:35 PM,32.9,8.6,36,30.04,10.0,WNW,12.7,-,N/A,,Clear,300,2013-01-19 03:35:00
8:55 PM,32.5,6.4,33,30.04,10.0,West,10.4,-,N/A,,Clear,280,2013-01-19 03:55:00
9:15 PM,31.5,7.5,37,30.04,10.0,West,6.9,-,N/A,,Clear,260,2013-01-19 04:15:00
9:35 PM,30.9,9.5,41,30.04,10.0,West,9.2,-,N/A,,Clear,280,2013-01-19 04:35:00
9:55 PM,30.7,11.7,45,30.04,10.0,WNW,10.4,-,N/A,,Clear,290,2013-01-19 04:55:00
10:15 PM,30.0,12.0,47,30.03,10.0,West,10.4,-,N/A,,Clear,280,2013-01-19 05:15:00
10:35 PM,30.9,12.0,46,30.03,10.0,West,11.5,-,N/A,,Clear,280,2013-01-19 05:35:00
10:55 PM,28.4,11.3,49,30.03,10.0,WNW,10.4,-,N/A,,Clear,290,2013-01-19 05:55:00
11:15 PM,30.6,12.0,46,30.03,10.0,WNW,12.7,-,N/A,,Clear,290,2013-01-19 06:15:00
11:35 PM,31.1,11.3,44,30.04,10.0,West,10.4,-,N/A,,Clear,280,2013-01-19 06:35:00
11:55 PM,31.1,10.9,43,30.04,10.0,West,8.1,-,N/A,,Clear,270,2013-01-19 06:55:00